Weather Roundup
Issued by NWS

Home | Current Version | Previous Version | Text Only | Print | Product List | Glossary On
Versions: 1 2 3 4 5 6 7 8 9 10 11 12 13 14 15 16 17 18 19 20 21 22 23 24 25 26 27 28 29 30 31 32 33 34 35 36 37 38 39 40 41 42 43 44 45 46 47 48 49 50
000
NZUS93 KARX 272159
HRRWXR

CURRENT HOURLY OBSERVATIONS ACROSS
MUCH OF THE UPPER MISSISSIPPI VALLEY
NATIONAL WEATHER SERVICE LA CROSSE WI
500 PM CDT WED JUL 27 2016


...SOUTHEAST MINNESOTA...


CITY           SKY/WX    TMP DP  RH WIND       PRES   REMARKS
ROCHESTER      MOSUNNY   80  67  64 S12       29.93F
ROCHESTER/MAYO FAIR      80  64  57 S12G18    29.93F
WINONA         MOSUNNY   81  66  61 SW6       29.92F
AUSTIN         SUNNY     81  64  57 SW13      29.93F
ALBERT LEA     SUNNY     79  66  65 S9        29.91F
DODGE CENTER   SUNNY     79  64  61 S13       29.93F
PRESTON        MOSUNNY   80  65  61 SW8       29.96S
OWATONNA       CLOUDY    77  68  73 W25G32    29.94S
FARIBAULT      CLOUDY    72  72 100 SW8       29.93F
$$

...ELSEWHERE IN MINNESOTA...


CITY           SKY/WX    TMP DP  RH WIND       PRES   REMARKS
MINNEAPOLIS    CLOUDY    75  68  78 N10       29.94R
INTNL FALLS    SUNNY     77  56  48 NE12      30.04S
DULUTH         CLOUDY    63  58  83 E9        30.04S
RED WING       CLOUDY    81  68  65 SW5       29.91S THUNDER
REDWOOD FALLS  MOSUNNY   80  65  59 N15       29.96S
MANKATO        CLOUDY    81  66  61 NW17      29.93S
WORTHINGTON    MOSUNNY   80  67  64 NW12      30.00S
FAIRMONT       PTSUNNY   81  68  65 NW8       29.94S
$$

...SOUTHWEST WISCONSIN...


CITY           SKY/WX    TMP DP  RH WIND       PRES   REMARKS
LA CROSSE      MOSUNNY   85  67  54 SW9       29.91F
PRAIRIE DU CHI MOSUNNY   82  64  54 SW5       29.93F
BOSCOBEL       MOSUNNY   86  65  49 SW7       29.93F
LONE ROCK      NOT AVBL
PLATTEVILLE    PTSUNNY   82  68  62 SW6       29.96S
FORT MC COY    CLOUDY    82  69  65 SW5       29.94S
MAUSTON-NEW LI CLOUDY    80  70  70 SE6       29.94F
VIROQUA        MOCLDY    82  66  58 S6        29.95F
WIS DELLS      NOT AVBL
$$

...ELSEWHERE IN WISCONSIN...


CITY           SKY/WX    TMP DP  RH WIND       PRES   REMARKS
MILWAUKEE      PTSUNNY   77  66  68 NE12      29.97S
MADISON        PTSUNNY   82  69  64 E10       29.95F
GREEN BAY      CLOUDY    79  69  71 CALM      29.96S
EAU CLAIRE     CLOUDY    80  69  69 SW13      29.91S
BLACK RVR FLS  FAIR      82  66  58 SW7       29.93S
MEDFORD        CLOUDY    77  70  77 NE7       29.96F
WAUSAU         CLOUDY    78  68  71 E6        29.94F
WIS RAPIDS     CLOUDY    78  65  63 CALM      29.96F
MARSHFIELD     TSTM      68  63  84 SW16G25   29.97R
RICE LAKE      TSTM      65  63  91 CALM      29.98F
$$

...NORTHEAST IOWA...


CITY           SKY/WX    TMP DP  RH WIND       PRES   REMARKS
WATERLOO       CLOUDY    82  66  58 SW9       29.94F
DUBUQUE        CLOUDY    81  66  60 W3        29.96F
DECORAH        MOSUNNY   81  68  65 SW8G15    29.94F
MASON CITY     SUNNY     82  64  54 SW13      29.95F
CHARLES CITY   MOSUNNY   81  70  69 SW8       29.95F
OELWEIN        PTSUNNY   81  68  65 SW8       29.96F
$$

...ELSEWHERE IN IOWA...


CITY           SKY/WX    TMP DP  RH WIND       PRES   REMARKS
DES MOINES     CLOUDY    84  69  60 NW5       29.94F
IOWA CITY      CLOUDY    84  68  58 SW6       29.93F
FORT DODGE     PTSUNNY   82  70  65 S7        29.95F
MARSHALLTOWN   CLOUDY    80  68  66 W3        29.95F
CEDAR RAPIDS   MOSUNNY   82  72  71 W7        29.94F
$$

...NORTHERN ILLINOIS...


CITY           SKY/WX    TMP DP  RH WIND       PRES   REMARKS
CHICAGO-OHARE  PTSUNNY   88  62  41 SW9       29.93S
CHICAGO-MIDWAY MOSUNNY   89  63  41 SW10      29.93S HX  90
MOLINE         SUNNY     86  68  54 S7        29.92F
ROCKFORD       PTSUNNY   86  67  52 S5        29.95F
PEORIA         PTSUNNY   85  70  60 VRB5      29.94S
$$

NOTE: "FAIR" INDICATES FEW OR NO CLOUDS BELOW 12,000 FEET WITH NO
SIGNIFICANT WEATHER AND/OR OBSTRUCTIONS TO VISIBILITY. WIND
SPEEDS ARE IN MILES-PER-HOUR.




USA.gov is the U.S. government's official web portal to all federal, state and local government web resources and services.